Location: Croissy-Beaubourg
(48.8283°N, 2.6696°E)
Time: 16:10:56
(UTC+00:00)

OBJECT-B - Pass Details

Date: 16 October 2021
Orbit: 406 x 416 km, 96.9° (Epoch: 24 October)

Event Time Altitude Azimuth Distance (km) Brightness Sun altitude
Exits shadow 18:39:27 14° 21° (NNE) 1,277 3.0 -17.5°
Drops below altitude 10° 18:40:04 10° 13° (NNE) 1,488 3.5 -17.6°
Sets 18:42:18 0° 359° (N) 2,357 4.7 -18.0°
